RH
95 94 94 96 99 97 97 99 99 99 99 99 99 99 99 99 99 99 99 99 99 98
98 97 99 99 99 99 99 99 98 99 98 98 98 98 98 99 99 99 99 98 99 98
98 99 99 99 99 98 99 99 99 99 99 99 98 98 99 99 98 99 98 98 99 98
86 87 87 90 92 96 96 96 97 98 99 99 98 98 99 99 98 98 97 98 98 97
75 74 76 76 78 80 88 89 88 88 87 89 92 94 97 98 98 99 99 99 99 98
82 82 85 85 83 82 83 84 85 86 88 87 89 91 92 93 95 95 97 97 98 98
92 93 92 89 86 88 88 89 89 90 88 88 87 87 88 90 92 93 94 95 96 95
90 90 88 89 90 90 90 93 94 93 92 92 87 83 93 92 93 93 93 93 94 94
92 88 93 94 94 93 91 91 92 92 92 92 84 86 88 91 95 94 94 94 92 93
93 94 94 93 93 93 94 92 92 92 92 92 92 84 84 89 96 96 96 95 95 93
92 94 94 94 96 96 95 96 95 95 94 93 84 82 82 85 95 97 96 96 94 90
92 93 92 94 96 95 95 95 96 96 95 94 92 84 81 86 94 96 95 94 94 89
92 93 92 94 94 92 91 91 90 89 90 82 85 79 72 72 75 81 81 78 76 79
88 88 90 92 93 94 95 93 93 89 86 88 75 73 70 70 64 73 74 74 80 78
Wind_Speed
14 7 5 7 3 5 6 5 4 4 4 5 5 5 5 4 3 2 4 4 5 3
7 8 6 6 5 3 5 4 4 4 4 4 3 3 3 3 3 3 5 8 7 6
8 7 5 5 5 4 3 3 4 4 5 5 4 5 3 3 4 7 7 7 8 8
12 11 11 10 9 9 8 8 7 7 3 0 2 3 4 5 5 8 8 7 8 10
11 10 11 10 9 7 9 8 8 8 8 7 7 6 6 6 5 5 6 5 6 7
12 11 11 10 9 9 9 8 8 8 7 7 7 6 6 5 5 5 5 5 6 7
9 8 8 7 8 9 8 8 7 7 6 6 6 5 6 5 5 5 5 5 5 6
8 8 8 9 8 8 9 7 6 6 7 6 5 4 5 5 5 5 6 5 6 6
7 7 6 7 6 6 6 6 6 7 6 6 4 11 11 8 5 6 6 7 8 6
7 8 8 7 8 8 7 6 7 7 7 7 7 14 16 14 5 6 6 6 6 7
5 6 6 6 6 6 4 5 4 5 6 6 6 16 16 16 5 5 6 7 7 9
6 7 7 8 8 6 6 6 6 6 6 7 8 17 18 15 8 6 6 6 6 9
5 5 5 4 5 4 3 5 4 5 5 8 6 13 20 18 10 12 10 10 11 15
4 3 3 4 3 4 4 5 6 6 6 6 10 11 19 20 11 10 11 11 10 8
Wind_Direction
209 185 191 157 144 154 130 136 138 129 144 148 149 153 170 170 173 195 229 276 243 240
71 102 113 113 124 137 102 160 168 185 180 179 204 181 163 182 211 186 220 233 231 227
45 59 77 96 95 114 124 172 198 198 197 196 213 234 190 203 203 218 228 227 226 232
46 43 54 56 47 44 50 40 37 25 32 198 232 221 212 220 235 245 256 238 238 247
53 48 51 49 47 46 50 42 36 34 40 31 26 22 16 3 352 332 320 300 280 261
46 44 47 40 39 39 45 42 36 35 34 22 14 11 8 359 342 330 316 314 305 301
49 45 47 43 44 46 40 41 31 27 25 25 10 12 3 350 340 326 311 303 296 294
36 40 44 45 40 36 37 32 31 28 21 14 12 5 352 349 338 328 315 304 286 273
49 46 39 37 35 43 39 32 34 30 16 13 1 350 350 349 334 324 316 306 303 294
31 36 28 26 25 21 16 8 13 7 2 357 348 347 349 346 337 319 302 293 292 297
29 29 19 21 19 15 6 3 348 342 338 336 338 348 342 337 314 301 291 288 295 294
28 25 18 15 2 3 5 354 346 335 346 345 340 350 353 353 330 303 299 306 298 297
21 17 8 356 339 330 335 313 313 321 335 341 331 343 350 351 342 336 335 325 322 315
17 12 5 355 312 337 346 344 4 356 339 340 1 351 348 341 335 330 325 322 323 314